Overview Statistics Trail Chart Weather Telemetry Raw packets
 

This is the latest recevied weather packets stored in our database for station/object OK2JV-13. If no packets are shown the sender has not sent any weather packets the latest 10 day(s).

<< 5 6 7 8 9 10 11 >>
Time Temp. Humidity Pressure Rain* Wind** Luminosity Snow
1788573907 16.11° C 71% 1012.7 hPa - - - -
1788573302 16.67° C 70% 1012.8 hPa - - - -
1788572698 16.67° C 70% 1013 hPa - - - -
1788572094 16.67° C 69% 1012.8 hPa - - - -
1788571490 17.22° C 68% 1013 hPa - - - -
1788570885 17.22° C 67% 1012.9 hPa - - - -
1788570281 17.78° C 63% 1012.8 hPa - - - -
1788569675 18.33° C 63% 1012.6 hPa - - - -
1788569070 18.89° C 62% 1012.5 hPa - - - -
1788568467 20° C 62% 1012.5 hPa - - - -
1788567863 20.56° C 60% 1011.9 hPa - - - -
1788567263 21.11° C 56% 1011.2 hPa - - - -
1788566654 21.11° C 56% 1010.7 hPa - - - -
1788566050 21.11° C 55% 1010.6 hPa - - - -
1788565446 21.11° C 55% 1010.5 hPa - - - -
1788564841 21.11° C 55% 1010.4 hPa - - - -
1788564238 21.11° C 55% 1010.7 hPa - - - -
1788563634 21.11° C 55% 1010.5 hPa - - - -
1788563030 21.11° C 55% 1010.5 hPa - - - -
1788562426 21.11° C 54% 1010.5 hPa - - - -
1788561822 21.11° C 54% 1010.4 hPa - - - -
1788561218 21.67° C 54% 1010.4 hPa - - - -
1788560612 21.67° C 54% 1010.4 hPa - - - -
1788560007 21.67° C 53% 1010.3 hPa - - - -
1788559403 21.67° C 53% 1010.4 hPa - - - -

* Rain since midnight (hover to see other rain measurements)
** Current wind speed in m/s (hover to see current wind gust speed)